Regional Weather Roundup
Issued by NWS Albany, NY

Home | Current Version | Previous Version | Text Only | Print | Product List | Glossary On
Versions: 1 2 3 4 5 6 7 8 9 10 11 12 13 14 15 16 17 18 19 20 21 22 23 24 25 26 27 28 29 30 31 32 33 34 35 36 37 38 39 40 41 42 43 44 45 46 47 48 49 50
000
ASUS41 KALY 221210
RWRALY

NEW YORK STATE HOURLY WEATHER ROUNDUP
NATIONAL WEATHER SERVICE ALBANY NY
700 AM EST SAT NOV 22 2014

NOTE: "FAIR" INDICATES FEW OR NO CLOUDS BELOW 12,000 FEET WITH NO
SIGNIFICANT WEATHER AND/OR NO OBSTRUCTIONS TO VISIBILITY.

NYZ032-033-038>043-046>054-057>066-NYZ062>081-221300-
EAST


CITY           SKY/WX    TMP DP  RH WIND       PRES   REMARKS
ALBANY         MOCLDY    21  12  68 S7        30.41R WCI  12
GLENS FALLS    MOCLDY    22  13  68 S10       30.36S WCI  11
POUGHKEEPSIE   CLEAR     23  12  62 S5        30.46R WCI  17
NEWBURGH       CLEAR     19  12  73 W12       30.45S WCI   7
MONTGOMERY     CLEAR     15   8  73 SW6       30.43F WCI   6
WHITE PLAINS   CLEAR     23  11  60 CALM      30.44F
ISLIP          PTCLDY    24  14  65 W3        30.47R
NEW YORK CITY  CLEAR     29  12  49 SW8       30.49S WCI  21
CENTRAL PARK   CLEAR     28  11  48 CALM      30.50F
$$

NYZ005>009-017-018-044>046-055-056-221300-
CENTRAL


CITY           SKY/WX    TMP DP  RH WIND       PRES   REMARKS
FULTON         MOCLDY    25  12  58 S9        30.29F WCI  15
SYRACUSE       MOCLDY    26  11  52 SE6       30.30F WCI  19
ROME           PTCLDY    19  11  70 E8        30.36F WCI   9
ELMIRA         PTCLDY    14  10  84 CALM      30.33F
BINGHAMTON     PTCLDY    16   8  71 S7        30.29F WCI   6
MONTICELLO     CLEAR     12   9  85 CALM      30.36F
$$

NYZ026>034-041>043-221300-
NORTH


CITY           SKY/WX    TMP DP  RH WIND       PRES   REMARKS
WATERTOWN      CLOUDY    27  11  51 S10G22    30.26F WCI  17
FORT DRUM      NOT AVBL
MASSENA        CLOUDY    27  19  72 S16G23    30.20F WCI  15
SARANAC LAKE   MOCLDY    20  14  77 SW14      30.15F WCI   7
PLATTSBURGH    CLOUDY    24  17  74 S9        30.24F WCI  14
$$

NYZ001>004-010>016-019>021-221300-
WEST


CITY           SKY/WX    TMP DP  RH WIND       PRES   REMARKS
NIAGARA FALLS  CLOUDY    28  15  58 S16       30.21F WCI  16
BUFFALO        CLOUDY    26   9  48 S17       30.21F WCI  13
DUNKIRK        MOCLDY    25  11  55 S20G31    30.23F WCI  11
JAMESTOWN      MOCLDY    18   7  62 S9        30.21F WCI   6
WELLSVILLE     PTCLDY    21   5  50 SW17G25   30.23F WCI   7
ROCHESTER      CLOUDY    26  11  52 S13       30.23F WCI  15
PENN YAN       MOCLDY    24  10  55 S12       30.27F WCI  13
$$

             KEY
       WCI = WIND CHILL INDEX
       VSB = VISIBILITY
       HX  = HEAT INDEX
$$


USA.gov is the U.S. government's official web portal to all federal, state and local government web resources and services.